Flight Track Log - Related Links

Times and Time Zones

All times are in EDT time to prevent confusion due to time zone crossing. See the N776MA flight status page for this flight to view local times or setup timezone preferences in your user account.

Time Position Orientation Groundspeed Altitude Reporting Facility
EDT Latitude Longitude Course Direction KTS MPH feet Rate Location/Type
Wed 12:30:53 PM 42.9433 -83.8372 128° Southeast 238 274 3,800  Level Cleveland Center
Wed 12:31:55 PM 42.8961 -83.7772 137° Southeast 274 315 7,200 2,976 Climbing Cleveland Center
Wed 12:32:56 PM 42.9219 -83.6772 71° East 273 314 9,900 1,366 Climbing Cleveland Center
Wed 12:33:58 PM 42.9511 -83.5750 69° East 327 376 10,000 823 Climbing Cleveland Center
Wed 12:35:00 PM 42.9908 -83.4425 68° East 379 436 11,600 1,984 Climbing Cleveland Center
Wed 12:36:00 PM 42.6267 -82.9816 128° Southeast  Level Estimated
Wed 12:36:02 PM 43.0342 -83.2839 69° East 372 428 14,100  Level Cleveland Center
Wed 12:37:03 PM 43.0067 -83.1494 106° East 408 470 16,100 1,805 Climbing Cleveland Center
Wed 12:38:05 PM 42.9214 -83.0269 134° Southeast 438 504 17,800 1,839 Climbing Cleveland Center
Wed 12:39:07 PM 42.8242 -82.8933 135° Southeast 488 562 19,900 2,129 Climbing Cleveland Center
Wed 12:40:09 PM 42.7214 -82.7542 135° Southeast 510 587 22,200 2,323 Climbing Cleveland Center
Wed 12:41:11 PM 42.6169 -82.6119 135° Southeast 525 604 24,700 2,390 Climbing Cleveland Center
Wed 12:42:12 PM 42.5100 -82.4681 135° Southeast 536 617 27,100 2,146 Climbing Cleveland Center
Wed 12:43:14 PM 42.3983 -82.3189 135° Southeast 554 638 29,100 1,403 Climbing Cleveland Center
Wed 12:44:16 PM 42.2603 -82.1353 135° Southeast 579 666 30,000 581 Climbing Cleveland Center
Wed 12:45:18 PM 42.1453 -81.9806 135° Southeast 582 670 30,300 1,161 Climbing Cleveland Center
Wed 12:46:20 PM 42.0281 -81.8264 136° Southeast 586 674 32,400 2,806 Climbing Cleveland Center
Wed 12:47:22 PM 41.9122 -81.6753 136° Southeast 585 673 36,100 3,024 Climbing Cleveland Center
Wed 12:48:23 PM 41.8025 -81.5364 137° Southeast 549 632 38,600 1,805 Climbing Cleveland Center
Wed 12:49:25 PM 41.6822 -81.3836 136° Southeast 536 617 39,800 968 Climbing Cleveland Center
Wed 12:50:27 PM 41.5731 -81.2511 138° Southeast 534 615 40,600 581 Climbing Cleveland Center
Wed 12:51:29 PM 41.4411 -81.1619 153° Southeast 534 615 41,000 194 Climbing Cleveland Center
Wed 12:52:31 PM 41.3106 -81.0667 151° Southeast 534 615 41,000 -49 Level Cleveland Center
Wed 12:53:32 PM 41.1789 -80.9725 152° Southeast 538 619 40,900  Descending Cleveland Center
Wed 12:54:34 PM 41.0247 -80.8592 151° Southeast 531 611 41,000 97 Climbing Cleveland Center
Wed 12:55:36 PM 40.8931 -80.7656 152° Southeast 534 615 41,100 48 Climbing Cleveland Center
Wed 12:56:38 PM 40.7631 -80.6728 152° Southeast 534 615 41,100 -49 Level Cleveland Center
Wed 12:57:39 PM 40.6328 -80.5800 152° Southeast 534 615 41,000 -49 Descending Cleveland Center
Wed 12:58:41 PM 40.5036 -80.4881 152° Southeast 534 615 41,000  Level Cleveland Center
Wed 12:59:43 PM 40.3750 -80.3986 152° Southeast 534 615 41,000 -145 Level Cleveland Center
Wed 01:00:45 PM 40.2233 -80.2931 152° Southeast 530 610 40,700 -871 Descending Cleveland Center
Wed 01:01:47 PM 40.0936 -80.2039 152° Southeast 530 610 39,200 -1,512 Descending Cleveland Center
Wed 01:02:48 PM 39.9614 -80.1117 152° Southeast 537 618 37,600 -2,049 Descending Cleveland Center
Wed 01:03:50 PM 39.8486 -79.9856 139° Southeast 544 626 35,000 -2,371 Descending Cleveland Center
Wed 01:04:52 PM 39.8025 -79.8047 108° East 535 616 32,700 -2,274 Descending Cleveland Center
Wed 01:05:54 PM 39.7653 -79.5867 102° East 521 600 30,300 -2,068 Descending Cleveland Center
Wed 01:07:49 PM 39.6997 -79.2542 104° East 530 610 26,600 -1,849 Descending Washington Center
Wed 01:08:46 PM 39.6592 -79.0742 106° East 530 610 25,000 -814 Descending Washington Center
Wed 01:09:47 PM 39.6164 -78.8969 107° East 519 597 25,000 -1,190 Level Washington Center
Wed 01:10:47 PM 39.5792 -78.7228 105° East 513 590 22,600 -2,521 Descending Washington Center
Wed 01:11:46 PM 39.5436 -78.5625 106° East 493 567 20,000 -2,380 Descending Washington Center
Wed 01:12:48 PM 39.5081 -78.4025 106° East 471 542 17,800 -2,164 Descending Washington Center
Wed 01:13:48 PM 39.4742 -78.2450 106° East 457 526 15,600 -1,412 Descending Washington Center
Wed 01:14:47 PM 39.4397 -78.0986 107° East 439 505 15,000 -504 Descending Washington Center
Wed 01:15:47 PM 39.4092 -77.9581 106° East 422 486 14,600 -992 Descending Washington Center
Wed 01:16:48 PM 39.3908 -77.8231 100° East 401 461 13,000 -1,525 Descending Washington Center
Wed 01:17:49 PM 39.4036 -77.6972 82° East 363 418 11,500 -992 Descending Washington Center
Wed 01:18:49 PM 39.4203 -77.5714 80° East 358 412 11,000 -256 Descending Washington Center
Wed 01:19:46 PM 39.4347 -77.4483 81° East 353 406 11,000 50 Level Washington Center
Wed 01:20:48 PM 39.4514 -77.3169 81° East 342 394 11,100  Climbing Washington Center
Wed 01:21:48 PM 39.4656 -77.1992 81° East 337 388 11,000 -838 Descending Washington Center
Wed 01:23:04 PM 39.4500 -77.0500 98° East 328 377 9,200 -1,500 Descending Potomac TRACON
Wed 01:24:04 PM 39.4333 -76.9333 100° East 303 349 7,600 -1,587 Descending Potomac TRACON
Wed 01:25:05 PM 39.4167 -76.8333 102° East 286 329 6,000 -1,537 Descending Potomac TRACON
Wed 01:26:05 PM 39.4000 -76.7500 104° East 276 318 4,500 -991 Descending Potomac TRACON
Wed 01:27:00 PM 39.3833 -76.6500 102° East 266 306 4,100 -198 Descending Potomac TRACON
Wed 01:28:06 PM 39.3667 -76.5667 104° East 237 273 4,100  Level Potomac TRACON
Wed 01:29:06 PM 39.3000 -76.5167 150° Southeast 235 270 4,100 -158 Level Potomac TRACON
Wed 01:30:00 PM 39.2500 -76.4833 153° Southeast 221 254 3,800 -545 Descending Potomac TRACON
Wed 01:31:07 PM 39.2167 -76.4167 123° Southeast 219 252 3,000 -425 Descending Potomac TRACON
Wed 01:32:07 PM 39.2000 -76.3500 108° East 206 237 2,900 -400 Descending Potomac TRACON
Wed 01:33:07 PM 39.2167 -76.3000 67° East 182 209 2,200 -632 Descending Potomac TRACON
Wed 01:34:01 PM 39.2500 -76.3167 339° North 163 188 1,700 -600 Descending Potomac TRACON
Wed 01:35:07 PM 39.2833 -76.3667 311° West 118 136 1,000 -571 Descending Potomac TRACON
Wed 01:36:07 PM 39.3000 -76.3833 322° Northwest 128 147 500 -500 Descending Potomac TRACON
Wed 01:38:00 PM 39.3167 -76.4000 342° North  Level FlightAware Approximate
Wed 01:45:00 PM 39.3257 -76.4138 342° North  Level Estimated
Wed 01:46:00 PM 39.3257 -76.4138 159° South  Level Estimated

Login

Don't have an account? Register now (free) for customized features, flight alerts, and more!